Location: Tierz
(42.1336°N, 0.3549°W)
Time: 06:42:07
(UTC+00:00)

SL-4 R/B - Pass Details

Date: 29 October 2020
Orbit: 427 x 665 km, 51.6° (Epoch: 26 November)

Event Time Altitude Azimuth Distance (km) Brightness Sun altitude
Rises 19:07:45 0° 306° (NW) 2,471 6.2 -24.5°
Reaches altitude 10° 19:09:55 10° 314° (NW) 1,625 5.0 -24.9°
Enters shadow 19:11:51 27° 333° (NNW) 957 3.5 -25.2°
